AirNav   Pilot Hours Calculator
 
 511 users online  

01K Caldwell Municipal Airport
Caldwell, Kansas, USA

GOING TO CALDWELL?


FAA INFORMATION EFFECTIVE 26 JANUARY 2023

Location

FAA Identifier: 01K
Lat/Long: 37-02-11.8000N 097-35-08.0000W
37-02.196667N 097-35.133333W
37.0366111,-97.5855556
(estimated)
Elevation: 1157 ft. / 352.7 m (surveyed)
Variation: 07E (1985)
From city: 1 mile E of CALDWELL, KS
Time zone: UTC -6 (UTC -5 during Daylight Saving Time)
Zip code: 67022

Airport Operations

Airport use: Open to the public
Activation date: 12/1945
Control tower: no
ARTCC: KANSAS CITY CENTER
FSS: WICHITA FLIGHT SERVICE STATION
NOTAMs facility: ICT (NOTAM-D service available)
Attendance: UNATNDD
Wind indicator: lighted
Segmented circle: no
Landing fee: no, LNDG FEE FOR COMMERCIAL USERS ONLY.

Airport Communications

CTAF: 122.9
WX AWOS-3P at EGT (20 nm NE): 118.875 (620-359-2156)

Nearby radio navigation aids

VOR radial/distance  VOR name  Freq  Var
PERr304/26.8PIONEER VORTAC113.2006E

Airport Services

Parking: tiedowns
Airframe service: NONE
Powerplant service: NONE
Bottled oxygen: NONE
Bulk oxygen: NONE

Runway Information

Runway 17/35

Dimensions: 2460 x 110 ft. / 750 x 34 m
Surface: turf, in good condition
RUNWAY 17  RUNWAY 35
Latitude: 37-02.400143N37-01.994667N
Longitude: 097-35.131850W097-35.134923W
Elevation: 1157.0 ft.1135.0 ft.
Traffic pattern: leftleft
Runway heading: 173 magnetic, 180 true353 magnetic, 000 true
Obstructions: 13 ft. road, 40 ft. from runway, 3:1 slope to clear
COUNTRY ROAD - TFC DURING HARVEST.
15 ft. road, 180 ft. from runway, 12:1 slope to clear
PLINE, HWY & PLINE SUPPORT 1/8 MILE S OF ROAD.

Airport Ownership and Management from official FAA records

Ownership: Publicly-owned
Owner: CITY OF CALDWELL
14 W. CENTRAL
CALDWELL, KS 67022
Phone 620-845-6514
Manager: JOSH VANEK
14 W. CENTRAL
CALDWELL, KS 67022
Phone 620-845-6676

Airport Operational Statistics

Aircraft based on the field: 1
Single engine airplanes: 1
    
Aircraft operations: avg 75/month *
56% local general aviation
44% transient general aviation
* for 12-month period ending 21 May 2021

Additional Remarks

A30A-17 3 FT DITCH OFF END OF RWY.
18 IN BY 140 FT METAL CULVERT IN DITCH E OF RWY ON TWY.
WIND FARM 5 S OF ARPT.
FOR CD CTC WICHITA APCH AT 316-350-1520.

Instrument Procedures

There are no published instrument procedures at 01K.

Some nearby airports with instrument procedures:

O53 - Medford Municipal Airport (17 nm SW)
KEGT - Wellington Municipal Airport (20 nm NE)
KBKN - Blackwell-Tonkawa Municipal Airport (21 nm SE)
KANY - Anthony Municipal Airport (25 nm W)
8K2 - Harper Municipal Airport (26 nm NW)
 
Loc | Ops | Rwys | IFR | FBO | Links
Com | Nav | Svcs | Stats | Notes
Area around 01K (Caldwell Municipal Airport)
 
Road maps at: MapQuest Bing Google
 
Aerial photo
WARNING: Photo may not be current or correct
Aerial photo of 01K (Caldwell Municipal Airport)
Photo by Von Rothenberger
Photo taken 03-Sep-2010

Do you have a better or more recent aerial photo of Caldwell Municipal Airport that you would like to share? If so, please send us your photo.

 
Sectional chart

 
Airport distance calculator
Flying to Caldwell Municipal Airport? Find the distance to fly.

From to 01K

Sunrise and sunset
Times for 09-Feb-2023
 Local
(UTC-6)
 Zulu
(UTC)
Morning civil twilight07:0013:00
Sunrise07:2713:27
Sunset18:0300:03
Evening civil twilight18:3000:30

Current date and time
Zulu (UTC)  09-Feb-2023 09:11:29
Local (UTC-6)  09-Feb-2023 03:11:29
 
METAR
KEGT 
20nm NE 
090855Z AUTO 25009KT 10SM CLR 01/00 A2987 RMK AO2 T00071002
KWLD 
28nm E 
090854Z AUTO 13003KT 10SM CLR 00/00 A2988 RMK AO2 SLP125 T00000000 53006 $
KPNC 
30nm SE 
090853Z AUTO 22003KT 10SM CLR 01/00 A2989 RMK AO2 SLP124 60001 T00110000 55000
KICT 
38nm N 
090853Z 25006KT 10SM CLR 01/M01 A2985 RMK AO2 SLP112 T00061011 51006
KIAB 
38nm NE 
090855Z AUTO 27005KT 10SM CLR 02/M01 A2983 RMK AO2 SLP110 T00211015 50003 $
TAF
KPNC 
30nm SE 
090520Z 0906/1006 30010KT P6SM OVC040 TEMPO 0906/0908 4SM -RASN OVC012 FM090900 VRB05KT P6SM FEW200 FM091800 33015G23KT P6SM BKN020 FM092100 34013G20KT P6SM BKN035 FM100000 33010G17KT P6SM BKN028 PROB30 1000/1006 4SM -SHRASN BR OVC008
NOTAMs
Click for the latest NOTAMs
NOTAMs are issued by the DoD/FAA and will open in a separate window not controlled by AirNav.

 

 
 

Would you like to see your business listed on this page?

 If your business provides an interesting product or service to pilots, flight crews, aircraft, or users of the Caldwell Municipal Airport, you should consider listing it here.  To start the listing process, click on the button below
 
Add a business
 

Other Pages about Caldwell Municipal Airport

Update a link
 
Copyright © AirNav, LLC. All rights reserved. Privacy Policy  Contact